User: anonymous   Login
Location: Unspecified
(0.0000°N, 0.0000°E)
Time: 12:51:15
(UTC+00:00)
Language:

SPROUT - Orbit

View from above orbital plane
View from above orbital plane
View from above satellite
View from above satellite

Ground track
Ground track

The orbit data is extracted from the following two-line orbital elements,

1 39770U 14029E   17230.23609088  .00000422  00000-0  54132-4 0  9998
2 39770  97.8752 329.0077 0010551 120.1028 240.1248 14.86314082175359
Epoch (UTC): 18 August 2017 05:39:58
Eccentricity: 0.0010551
inclination: 97.8752°
perigee height: 602 km
apogee height: 617 km
right ascension of ascending node: 329.0077°
argument of perigee: 120.1028°
revolutions per day: 14.86314082
mean anomaly at epoch: 240.1248°
orbit number at epoch: 17535

The dashed part of the orbit path shows where the satellite is in the earth's shadow,  

DLR